Search projects


Showing 1-50 of 4,306 items.
NameOwnerPublication dateProject typeLikesViewed 
Built-in led 13 - Blink! ArduinoBlocks 2016-04-27 16:50:48Arduino Uno 112050
THLPaola Pérez2016-05-31 13:23:28Arduino Uno 11262
P01 - Secuencia 1Juanjo López2016-07-29 11:18:36Arduino Uno 01547
P01 - Secuencia 2Juanjo López2016-07-29 11:19:06Arduino Uno 11507
P02 - Amanecer / anochecerJuanjo López2016-07-29 11:24:13Arduino Uno 21841
P03 - Lampara intensidad manualJuanjo López2016-07-29 11:40:47Arduino Uno 01572
P03 - Lampara intensidad manual (b)Juanjo López2016-07-29 11:49:11Arduino Uno 01423
P04 - SemáforoJuanjo López2016-07-29 11:59:25Arduino Uno 31838
P10 - FotómetroJuanjo López2016-08-28 16:35:20Arduino Uno 11738
P11 - Iluminación crepuscularJuanjo López2016-08-28 16:55:00Arduino Uno 11629
P12 - Encendido / apagado con palmadaJuanjo López2016-08-28 17:01:22Arduino Uno 11741
P13 - TermómetroJuanjo López2016-08-28 17:24:03Arduino Uno 31797
P14 - TermostatoJuanjo López2016-08-28 17:47:34Arduino Uno 51978
P15 - Medidor de distanciaJuanjo López2016-08-28 19:16:33Arduino Uno 11851
P16 - Riego automáticoJuanjo López2016-08-28 19:27:45Arduino Uno 21882
P17 - Lámpara multicolor IRJuanjo López2016-08-28 19:44:31Arduino Uno 01621
P18 - Piano con tecladoJuanjo López2016-08-28 22:15:30Arduino Uno 01887
P19 - Sensor de aparcamientoJuanjo López2016-08-28 22:37:54Arduino Uno 31814
P20 - Control pan/tiltJuanjo López2016-08-28 23:06:39Arduino Uno 01793
P21 - Control led desde PCJuanjo López2016-08-28 23:31:50Arduino Uno 21615
P22 - Control relés bluetoothJuanjo López2016-08-29 10:19:06Arduino Uno 22099
P23 - Estación metereológica bluetoothJuanjo López2016-08-29 10:33:12Arduino Uno 01808
P24 - Control por voz AndroidJuanjo López2016-08-29 16:55:45Arduino Uno 21689
P25 - Control domoticoJuanjo López2016-08-29 17:52:18Arduino Uno 11860
P05 - TimbreJuanjo López2016-08-29 19:56:31Arduino Uno 11696
P06 - Control inteligenteJuanjo López2016-08-29 20:04:11Arduino Uno 11586
P07 - Encendido por movimientoJuanjo López2016-08-29 20:04:29Arduino Uno 01630
P08 - Contador manualJuanjo López2016-08-29 20:04:41Arduino Uno 11766
P09 - CronómetroJuanjo López2016-08-29 20:04:52Arduino Uno 32009
Hola mundoArduinoBlocks 2016-09-27 21:48:59Arduino Uno 53009
Termómetro digitalArduinoBlocks 2016-09-28 22:25:26Arduino Uno 53233
Control de led RGBArduinoBlocks 2016-09-29 16:42:45Arduino Uno 11890
Me gusta!ArduinoBlocks 2016-09-29 17:50:11Arduino Uno 22028
Sensor aparcamientoArduinoBlocks 2016-10-03 10:36:43Arduino Uno 146531
Led controlado con mando IRArduinoBlocks 2016-10-04 21:06:01Arduino Uno 42116
Control de led con palmadaArduinoBlocks 2016-10-07 10:39:01Arduino Uno 32819
Nivel de luz (LDR + servo)ArduinoBlocks 2016-10-12 12:01:41Arduino Uno 64763
Invernadero AutomaticoArgon Argon2016-10-12 22:49:59Arduino Uno 42099
Temperatura/Humedad BluetoothArduinoBlocks 2016-10-18 18:16:22Arduino Uno 97917
Condensador de fluzoArduinoBlocks 2016-10-20 19:35:51Arduino Uno 31555
Easy PLUG - Relé + LCDArduinoBlocks 2016-10-25 00:05:38Arduino Uno 21851
intermitencia del automóvil 1.0. + VIDEOSistemas Eléctricos Del Automovil2016-10-27 16:46:50Arduino Uno 0125
Encender/Apagar con un pulsadorArduinoBlocks 2016-11-19 10:51:36Arduino Uno 22318
Cuenta vueltas coches tipo ScalextricJaime Del Hoyo Gomez2016-11-27 18:58:02Arduino Uno 11942
Multitarea sin bloqueoArduinoBlocks 2016-12-01 12:02:58Arduino Uno 21847
GPS consolaArduinoBlocks 2016-12-04 22:51:35Arduino Uno 11407
GPS con pantalla LCDArduinoBlocks 2016-12-04 22:54:53Arduino Uno 21741
GPS tupperware 1.0ArduinoBlocks 2016-12-05 08:25:20Arduino Uno 11425
GPS aviso de velocidadArduinoBlocks 2016-12-05 09:10:19Arduino Uno 21594
Tareas 2.0ArduinoBlocks 2016-12-05 17:30:26Arduino Uno 01517